RH
36 45 46 36 35 37 39 39 39 34 29 34 35 35 34 30 26 28 27 26 33 33 33 33 36 39 42 44 45 43 43 43 40 39 38 39 36 34 34 33 34 36 39 38
41 45 40 38 38 39 40 40 40 34 34 36 36 37 34 31 33 35 34 35 38 39 40 40 39 42 45 48 51 52 51 53 47 44 44 43 41 40 37 37 35 35 34 33
42 37 32 36 39 40 39 42 39 42 38 38 40 38 36 38 38 41 42 41 43 45 47 47 47 47 47 51 55 56 57 57 60 60 57 53 49 43 44 45 42 38 34 32
38 32 34 37 36 32 40 34 42 43 48 57 44 50 38 47 46 46 48 48 48 49 50 53 52 50 51 51 51 56 63 62 65 64 62 56 54 47 44 43 46 41 37 33
35 35 37 38 34 38 38 40 45 49 52 49 51 51 45 50 48 52 53 52 53 55 55 54 57 59 60 60 59 60 56 53 52 55 57 58 54 48 49 48 49 48 44 36
36 36 35 34 37 40 43 47 50 53 52 65 53 58 40 48 48 52 55 57 57 58 61 65 67 69 69 73 71 73 72 69 64 59 56 55 52 52 54 51 47 41 36 25
41 39 36 37 40 42 46 55 70 72 73 68 55 60 42 51 50 52 56 63 63 64 69 76 83 84 90 84 85 84 75 71 72 70 67 58 55 53 52 51 49 39 30 26
49 47 40 42 45 49 54 60 76 78 72 63 61 64 48 50 54 57 61 63 68 70 71 73 79 84 81 74 68 69 77 81 79 72 69 66 58 54 56 57 47 41 39 33
55 50 41 42 47 52 61 69 67 81 79 83 64 53 54 57 58 59 60 67 70 70 70 67 66 64 66 66 64 64 59 57 53 45 54 65 62 61 61 57 51 49 43 36
50 59 51 49 48 52 57 67 77 85 88 82 64 59 56 61 61 66 71 72 76 77 74 66 61 59 60 58 58 56 58 56 48 47 43 48 54 63 69 63 52 45 39 36
55 60 57 58 55 57 68 74 78 83 85 90 82 57 53 55 62 71 73 81 83 83 78 70 66 64 59 56 52 50 49 44 43 44 51 48 47 48 48 45 43 43 44 44
61 72 69 72 62 71 70 65 72 90 84 84 85 55 54 60 69 73 82 85 85 86 78 73 71 66 60 55 51 48 43 41 44 43 46 50 52 54 52 50 48 45 46 48
50 74 91 82 77 77 69 62 71 81 83 71 87 66 72 76 82 84 87 88 86 85 82 80 77 69 64 57 52 48 47 48 51 52 53 57 57 56 55 51 50 51 55 55
70 78 77 76 67 69 69 58 65 77 90 73 67 69 79 84 87 91 90 88 88 89 88 87 80 73 64 59 57 53 51 55 54 58 61 62 63 63 59 57 61 64 64 65
86 81 80 75 71 71 63 61 70 78 77 86 67 74 76 77 78 84 88 87 88 90 91 91 80 74 70 65 60 54 56 58 60 64 65 71 71 68 72 74 74 75 77 84
78 80 81 77 74 78 73 76 82 83 83 80 76 74 78 81 79 80 82 86 90 92 93 84 76 67 61 58 54 51 50 51 49 61 71 82 80 85 84 85 87 91 89 92
81 82 83 90 86 83 81 69 76 73 72 71 74 71 77 81 82 82 83 86 89 84 75 70 66 65 58 57 53 52 47 50 52 58 59 58 61 67 66 78 89 94 94 96
80 91 90 96 89 92 62 63 64 67 68 68 71 72 73 75 77 77 73 69 68 69 70 70 74 72 62 60 65 56 55 54 56 53 53 54 49 45 46 46 47 49 57 77
81 92 97 96 91 75 64 66 70 67 61 62 64 64 62 58 55 58 65 70 72 72 77 81 84 75 74 79 74 67 66 58 50 51 47 44 39 40 35 35 34 32 32 35
82 83 94 96 93 92 69 69 67 64 61 50 53 49 52 60 68 72 76 77 78 82 88 90 95 95 94 84 84 84 73 59 53 49 45 37 35 31 27 25 25 27 27 27
82 94 91 96 94 80 72 73 68 63 49 45 49 58 64 70 75 81 86 87 89 93 96 97 97 95 95 96 95 80 68 60 58 49 37 30 31 25 17 14 13 14 18 22
88 97 97 95 96 93 76 70 62 51 48 54 60 65 71 80 85 90 94 96 97 96 97 97 97 97 97 95 84 72 65 54 46 40 32 30 19 16 15 14 14 14 13 12
91 89 92 89 87 81 70 60 57 55 58 64 66 66 74 80 88 94 95 97 97 96 97 97 97 97 97 89 74 64 59 48 36 28 22 21 19 20 16 16 16 16 16 15
83 82 84 82 79 70 65 59 55 57 63 64 66 69 78 85 91 89 93 97 97 96 96 97 97 97 93 76 67 58 51 45 31 24 20 19 18 17 18 18 18 18 20 19
78 81 85 79 72 68 66 58 60 63 65 67 72 78 82 88 87 88 93 95 96 96 97 97 96 90 77 67 58 49 42 33 25 22 21 21 20 19 19 19 21 22 25 25
80 77 71 64 65 62 60 64 65 67 71 76 79 82 89 90 90 91 95 96 96 96 97 95 87 79 70 57 49 43 37 29 25 23 24 23 20 19 21 20 21 21 23 26